Regional Weather Roundup
Issued by NWS

Home | Current Version | Previous Version | Text Only | Print | Product List | Glossary Off
Versions: 1 2 3 4 5 6 7 8 9 10 11 12 13 14 15 16 17 18 19 20 21 22 23 24 25 26 27 28 29 30 31 32 33 34 35 36 37 38 39 40 41 42 43 44 45 46 47 48 49 50

652
ASUS43 KDTX 070801
RWRMI
MICHIGAN HOURLY REGIONAL WEATHER ROUNDUP
NATIONAL WEATHER SERVICE DETROIT/PONTIAC MI
300 AM EST SUN FEB 07 2016

NOTE: "FAIR" INDICATES FEW OR NO CLOUDS BELOW 12,000 FEET WITH NO
SIGNIFICANT WEATHER AND/OR OBSTRUCTION TO VISIBILITY.

MIZ047>049-052>055-059>063-066>070-074>076-081>083-070900-
SOUTHEAST LOWER MICHIGAN

CITY           SKY/WX    TMP DP  RH WIND       PRES   REMARKS
ADRIAN         CLOUDY    29  25  85 S3        30.08F
ALMA           CLOUDY    33  30  91 SW8       30.02F WCI  25
ANN ARBOR      CLOUDY    30  25  81 S3        30.07F
BAD AXE        CLOUDY    32  26  77 S7        30.04F WCI  26
CARO           CLOUDY    32  27  80 S5        30.03S WCI  28
DETROIT CITY   MOCLDY    33  25  72 SW7       30.09F WCI  27
DETROIT        MOCLDY    30  25  81 S5        30.09F WCI  25
FLINT          CLOUDY    36  26  67 SW8       30.05F WCI  30
GROSSE ILE     PTCLDY    34  27  75 S5        30.08F WCI  30
HILLSDALE      MOCLDY    31  26  81 S7        30.05S WCI  24
HOWELL         CLOUDY    33  27  77 SW6       30.04F WCI  27

CITY           SKY/WX    TMP DP  RH WIND       PRES   REMARKS
JACKSON        CLOUDY    34  25  69 S5        30.04F WCI  30
LAMBERTVILLE   PTCLDY    30  25  80 S6        30.10F WCI  24
LANSING        CLOUDY    34  27  75 S7        30.04F WCI  28
LAPEER         FAIR      33  27  80 S6        30.05S WCI  27
MASON          PTCLDY    32  27  81 S3        30.04F
MONROE         MOCLDY    30  25  79 S5        30.09F WCI  26
MT. CLEMENS    CLOUDY    32  26  78 S7        30.07F WCI  26
PONTIAC        CLOUDY    33  25  72 S5        30.05F WCI  29
PORT HOPE        N/A     32  24  72 VRB5      30.03S WCI  27
PORT HURON     CLOUDY    30  27  86 S3        30.09S
TRI CITIES     MOCLDY    33  26  75 S6        30.03F WCI  28
MIDLAND        CLOUDY    32  26  78 CALM      30.01F
TROY           MOCLDY    34  26  72 S5        30.09F WCI  30
SAGINAW HB     PTCLDY    32  30  93 S5        30.04S WCI  27
$$
MIZ043>046-050>051-056>058-064>065-071>073-077>080-070900-
SOUTHWEST LOWER MICHIGAN

CITY           SKY/WX    TMP DP  RH WIND       PRES   REMARKS
BATTLE CREEK   CLOUDY    32  26  78 S9        30.03F WCI  24
BENTON HARBOR  CLOUDY    35  28  75 S8        30.03F WCI  29
BIG RAPIDS     MOCLDY    33  31  94 S3        29.97F
COLDWATER      CLOUDY    34  27  76 SW7       30.05S WCI  27
FREMONT        MOCLDY    32  32 100 S5        29.98F FOG     WCI  27
HOLLAND        PTCLDY    36  29  75 SW12      30.01F WCI  28
GRAND RAPIDS   CLOUDY    31  27  85 S6        30.01F WCI  25
IONIA          MOCLDY    32  28  83 S6        30.01F WCI  27
KALAMAZOO      PTCLDY    32  26  78 S8        30.03F WCI  25
LUDINGTON      CLOUDY    36  32  87 S8        29.95F WCI  29
MARSHALL       CLOUDY    34  27  75 SW7       30.04S WCI  28
MOUNT PLEASANT CLOUDY    32  27  83 S3        30.00F
MUSKEGON       CLOUDY    37  33  85 S9        29.99F WCI  30
SOUTH HAVEN    CLOUDY    34  29  82 S5        30.02F WCI  30
$$
MIZ016>042-070900-
NORTHERN LOWER MICHIGAN

CITY           SKY/WX    TMP DP  RH WIND       PRES   REMARKS
ALPENA         CLOUDY    27  23  85 SE5       29.98F WCI  22
BEAVER ISLAND  CLOUDY    34  31  90 S6        29.88F WCI  29
BELLAIRE       CLOUDY    32  27  83 S3        29.94F
CADILLAC       MOCLDY    32  30  93 S9        29.92F FOG     WCI  24
CHARLEVOIX     CLOUDY    31  28  86 SE6       29.94F WCI  25
FRANKFORT      CLOUDY    35  31  87 S9        29.91F WCI  27
GAYLORD        CLOUDY    29  25  85 S9        29.91F WCI  20
GRAYLING       CLOUDY    28  26  89 S5        29.95F WCI  23
HARBOR SPRINGS MOCLDY    30  26  84 CALM      29.93F
HOUGHTON LAKE  CLOUDY    30  27  88 S8        29.96F WCI  22
MANISTEE       CLOUDY    30  27  86 S3        29.94F
OSCODA         CLOUDY    31  27  84 SW8       30.00S WCI  24
PELLSTON       MOCLDY    30  25  81 S5        29.93F WCI  25
ROGERS CITY    CLOUDY    28  24  83 SE6       29.97F WCI  22
TRAVERSE CITY  CLOUDY    33  28  81 VRB5      29.91F WCI  29
$$
MIZ007>008-015-070900-
EASTERN UPPER MICHIGAN

CITY           SKY/WX    TMP DP  RH WIND       PRES   REMARKS
KINROSS        CLOUDY    28  28 100 S9        29.90F WCI  20
MACKINAC ISLAN CLOUDY    30  26  87 S7        29.92F WCI  23
NEWBERRY       LGT SNOW  32  31  97 S12G20    29.84F WCI  23
S. S. MARIE    LGT SNOW  28  26  92 SE7       29.90F FOG     WCI  21
$$
MIZ004>006-011>014-085-070900-
CENTRAL UPPER MICHIGAN

CITY           SKY/WX    TMP DP  RH WIND       PRES   REMARKS
MANISTIQUE     CLOUDY    32  29  88 S10       29.83F WCI  24
ESCANABA       CLOUDY    30  27  86 S15G24    29.82S WCI  19
MENOMINEE      CLOUDY    28  25  86 SW13      29.83F WCI  18
SAWYER-GWINN   LGT SNOW  27  26  96 S17       29.72F WCI  14
$$
MIZ001>003-009>011-084-070900-
WESTERN UPPER MICHIGAN

CITY           SKY/WX    TMP DP  RH WIND       PRES   REMARKS
IRON MOUNTAIN  LGT SNOW  29  25  85 S9        29.73F VSB 3/4 WCI  20
HOUGHTON       LGT SNOW  30  27  88 SE8       29.65F FOG     WCI  22
COPPER HARBOR    N/A     32  30  92 VRB3      29.69F
IRONWOOD       CLOUDY    30  27  86 S9G21     29.59F WCI  22
$$

ABBREVIATIONS USED IN REMARKS
   TC - TEMPERATURE IN CELSIUS
  WCI - WIND CHILL INDEX
   HX - HEAT INDEX
  VSB - VISIBILITY





USA.gov is the U.S. government's official web portal to all federal, state and local government web resources and services.